www.pogodaiklimat.ru

Погода и климат >> Архив погоды >> Иран >> Shiraz


ПОГОДА в Shiraz

  • Прогноз погоды в Shiraz
  • Монитор погоды в Shiraz
  • Климат города

АРХИВ ПОГОДЫ в Shiraz

Время (UTC), дата Ветер
(напр.,м/с)
 
Видим.   Явления Облачность Т
(С)
Тd
(С)
f
(%)
Тe
(С)
Тes
(С)
Комфортность P
(гПа)
Po
(гПа)
Тmin
(С)
Tmax
(С)
R
(мм)
R24
(мм)
S
(см)
18 11.10 СЗ 4 8000 м мгла 6/5 1050 м
[Cb calv Ci sp]
+24.8 -0.4 19 +23 +23 комфорт 1010.3 854.9
21 11.10 СЗ 4 10 км 3/1 1200 м
[Sc diur, vesp Ci sp]
+21.4 +1.2 26 +21 +21 комфорт 1010.3 855.1
00 12.10 штиль 0 10 км 3/0
[Ci fib]
+15.6 +3.0 43 +16 +16 1011.6 855.2
03 12.10 нст 1 10 км 3/1 1350 м
[Sc Ci fib]
+13.4 +3.6 51 +14 +14 1014.6 856.2 +12.8
06 12.10 штиль 0 10 км ясно +24.2 +1.2 22 +23 +34 комфорт 1012.7 857.0
09 12.10 В 2 10 км 3/3 1200 м
[Cu hum]
+28.8 +0.2 16 +26 +36 жарко 1010.4 855.3
12 12.10 ЮВ 2 10 км 3/3 1200 м
[Cu med, cong]
+29.4 -4.3 11 +26 +29 жарко 1010.4 854.0
15 12.10 штиль 0 10 км 3/0
[Ci fib]
+24.2 -0.2 20 +23 +23 комфорт 1012.7 854.2 +31.0
18 12.10 З 2 10 км 3/0
[Ci fib]
+22.2 +1.3 25 +22 +22 комфорт 1011.7 855.5
21 12.10 штиль 0 10 км 3/0
[Ci fib]
+19.6 +1.1 29 +20 +20 1011.2 855.6
00 13.10 штиль 0 10 км ясно +16.4 +2.5 39 +16 +16 1012.0 855.7
03 13.10 штиль 0 10 км 1/0
[Ac trans]
+13.4 +1.9 46 +13 +13 1015.6 856.7 +12.8
06 13.10 В 2 12 км 1/1 1200 м
[Cu hum]
+23.4 +1.6 24 +23 +30 комфорт 1014.6 857.8
09 13.10 ЮВ 2 12 км 4/4 1200 м
[Cu med, cong]
+28.4 -2.4 13 +26 +33 жарко 1012.0 856.1
12 13.10 З 6 16 км 3/3 1200 м
[Cb calv]
+33.8 -3.6 9 +32 +33 жарко 1010.6 855.1
15 13.10 З 2 8000 м мгла 9/9 900 м
[Cb calv]
+25.6 -1.8 16 +24 +24 комфорт 1013.9 855.5 +30.4
18 13.10 ЮВ 5 10 км гроза без осадков 9/9 900 м
[Cb calv]
+21.2 +3.2 31 +21 +21 комфорт 1014.7 857.7
21 13.10 штиль 0 10 км гроза без осадков {дождь} 9/9 900 м
[Cb cap]
+18.6 +4.7 40 +19 +19 1013.9 857.7
00 14.10 СЗ 4 10 км {гроза} 5/5 900 м
[Cb calv]
+19.0 +3.7 36 +19 +19 1014.2 858.1 0.4
03 14.10 З 2 12 км 3/3 1200 м
[Sc diur, vesp]
+17.4 +4.0 41 +18 +18 1015.3 857.9 +16.8
06 14.10 штиль 0 10 км ясно +22.6 +2.7 27 +22 +33 комфорт 1015.5 858.2
09 14.10 ЮЗ 2 15 км 1/1 1200 м
[Cu hum]
+26.0 -0.1 18 +24 +36 комфорт 1012.9 856.1
12 14.10 ЮЗ 2 15 км 5/5 1050 м
[Cb calv]
+26.4 +0.8 19 +25 +27 комфорт 1010.3 854.1
15 14.10 СЗ 5 8000 м гроза, ливневой дождь 8/8 900 м
[Cb cap]
+23.6 +0.7 22 +23 +23 комфорт 1012.5 854.9 +29.0
18 14.10 З 5 10 км в посл. час гроза 6/6 900 м
[Cb calv]
+20.6 +2.8 31 +21 +21 комфорт 1014.4 857.1 0.2
21 14.10 З 2 10 км 3/3 1200 м
[Sc diur, vesp]
+19.2 +2.9 34 +20 +20 1012.9 856.3
00 15.10 СЗ 2 10 км 1/1 1200 м
[Sc diur, vesp]
+17.2 +2.6 38 +18 +18 1013.3 856.3
03 15.10 З 2 12 км ясно +13.0 +5.0 58 +12 +12 1015.7 850.7 +12.2
06 15.10 штиль 0 12 км ясно +22.4 +1.7 26 +22 +32 комфорт 1014.6 857.2
09 15.10 штиль 0 8000 м мгла 4/1 1050 м
[Cu med, cong]
+26.6 +2.6 21 +25 +38 комфорт 1011.2 855.0
12 15.10 З 5 7000 м мгла 10/3 1050 м
[Cb calv Cs]
+24.6 +2.0 23 +24 +25 комфорт 1011.4 854.2
15 15.10 З 3 8000 м мгла 8/4 1200 м
[Sc diur, vesp Cs]
+22.2 +1.3 25 +22 +22 комфорт 1014.4 855.1 +27.4
18 15.10 нст 1 8000 м мгла 8/3 1200 м
[Sc diur, vesp Cs]
+19.2 +2.9 34 +21 +21 комфорт 1013.4 855.9
21 15.10 штиль 0 8000 м мгла 6/3 1200 м
[Sc diur, vesp Cs]
+17.2 +2.6 38 +17 +17 1012.5 855.6
00 16.10 штиль 0 10 км 4/1 1200 м
[Sc diur, vesp Ci sp]
+15.4 +3.2 44 +15 +15 1012.8 855.0
03 16.10 штиль 0 10 км ясно +11.0 +3.5 60 +11 +11 1016.0 856.0 +10.2
06 16.10 В 2 10 км 1/0
[Ci sp]
+21.0 +4.1 33 +22 +30 комфорт 1015.5 857.4
09 16.10 СВ 3 10 км 4/4 1050 м
[Cu med, cong]
+24.6 +1.3 22 +23 +30 комфорт 1012.7 855.3
12 16.10 Ю 2 10 км 4/4 1200 м
[Cu hum]
+25.8 +0.3 19 +24 +27 комфорт 1011.5 854.1
15 16.10 штиль 0 10 км 1/1 1200 м
[Sc diur, vesp]
+19.2 +2.9 34 +19 +19 1014.9 854.3 +26.8
18 16.10 СЗ 2 10 км 1/1 1200 м
[Sc diur, vesp]
+18.4 +2.2 34 +19 +19 1013.7 855.6
21 16.10 штиль 0 10 км 4/1 1200 м
[Sc diur, vesp Ac trans]
+15.0 +3.2 45 +15 +15 1013.8 855.7
00 17.10 штиль 0 10 км 3/1 1200 м
[Sc diur, vesp Ac trans]
+13.0 +0.8 43 +13 +13 1014.1 855.7
03 17.10 штиль 0 10 км 1/1 1200 м
[Sc diur, vesp]
+11.8 +3.0 55 +12 +12 1017.1 856.4 +11.0
06 17.10 штиль 0 10 км 4/4 1200 м
[Sc diur, vesp]
+21.8 +0.5 24 +21 +27 комфорт 1015.2 857.0
09 17.10 ЮВ 2 10 км 3/3 1200 м
[Cu med, cong]
+24.8 -2.0 17 +23 +32 комфорт 1012.8 854.8
12 17.10 Ю 2 10 км 8/8 1050 м
[Cb calv]
+25.6 +0.6 19 +24 +25 комфорт 1011.3 853.3
15 17.10 штиль 0 10 км 5/5 1200 м
[Sc diur, vesp]
+19.2 +4.0 37 +19 +19 1013.6 853.5 +27.0
18 17.10 штиль 0 10 км 5/1 1050 м
[Sc diur, vesp]
+17.0 +4.0 42 +17 +17 1012.3 854.3
21 17.10 штиль 0 10 км 4/4 1050 м
[Sc diur, vesp]
+15.6 +5.0 49 +16 +16 1012.0 854.5
00 18.10 штиль 0 10 км 5/5 1050 м
[Sc diur, vesp]
+14.4 +4.9 53 +14 +14 1012.3 854.6
03 18.10 штиль 0 10 км ясно +11.0 +5.4 68 +11 +11 1015.6 855.0 +10.2
06 18.10 нст 1 8000 м мгла ясно +20.8 +5.9 38 +23 +31 комфорт 1014.0 855.6
09 18.10 В 2 7000 м мгла 4/4 1050 м
[Cb calv]
+25.0 +2.1 22 +24 +31 комфорт 1010.9 853.5
12 18.10 З 2 10 км {гроза} 8/8 900 м
[Cb cap]
+22.6 +2.8 27 +22 +23 комфорт 1011.1 852.9
15 18.10 СЗ 3 10 км 8/8 1050 м
[Cb calv]
+21.2 +0.8 26 +21 +21 комфорт 1013.1 853.3 +26.6

 

Местоположение метеостанции Shiraz (Иран): широта 29.53 долгота 52.53 высота над уровнем моря 1481 м.

В архиве по умолчанию представлена погода в Shiraz за последнюю неделю. Архивные данные за месяц целиком и за предыдущие месяцы, начиная с января 2011 года, Вы можете получить, выбрав интересующий диапазон дат из раскрывающегося списка и нажав кнопку "Ввод!".


*Определитесь, кто Вы:
робот инопланетянин человек

Внимание! Время в таблицах - всемирное. Для получения местного времени необходимо прибавить поправку, которая в Shiraz равна 3.5 ч.

Смотрите также архив погоды в соседних городах и на ближайших метеорологических станциях:

Погода в Fasa (Иран) (128 км)
Погода в Yasuj (Иран) (156 км)
Погода в Bushehr (Иран) (175 км)
Погода в Bushehr Airport (Иран) (176 км)
Погода в Abadeh (Иран) (184 км)
Погода в Gach Saran (Иран) (197 км)
Погода в Bandar Deyr (Иран) (198 км)
Погода в Khark (Иран) (216 км)
Погода в Omidieh (Иран) (308 км)
Погода в Sirjan (Иран) (309 км)

Пояснения к столбцам:

Ветер - указаны скорость ветра в м/с - средняя за 10 мин, порывы в срок и между сроками (в фигурных скобках) и направление, откуда дует ветер: С - северный, СВ - северо-восточный, В - восточный, ЮВ - юго-восточный, Ю - южный, ЮЗ - юго-западный, З - западный, СЗ - северо-западный.
Видимость - горизонтальная дальность видимости в метрах или километрах. При видимости от 1 до 10 км при отсутствии осадков обычно наблюдается дымка, при ухудшении видимости до 1 км и менее - туман. В сухую погоду видимость может ухудшаться дымом, пылью или мглою.
Явления - указаны атмосферные явления, наблюдавшиеся в срок или в последний час перед сроком; фигурными скобками обозначены явления, наблюдавшиеся между сроками (за 1-3 часа до срока); квадратными скобками обозначены град или гололедные отложения с указанием их диаметра в мм.
Облачность - указаны через наклонную черту общая и нижняя облачность в баллах и высота нижней границы облаков в метрах; квадратными скобками обозначены формы облаков: Ci - перистые, Cs - перисто-слоистые, Cc - перисто-кучевые, Ac - высококучевые, As - высокослоистые, Sc - слоисто-кучевые, Ns - слоисто-дождевые, Cu - кучевые, Cb - кучево-дождевые. Подробнее классификацию облаков см. в Атласе облаков (PDF).
T - Температура воздуха - температура, измеренная на высоте 2 м над землей.
Td - Температура точки росы - температура, при понижении до которой содержащийся в воздухе водяной пар достигнет насыщения.
f - Относительная влажность воздуха - влажноcть воздуха, измеренная на высоте 2 м над землей.
Te - Эффективная температура - температура, которую ощущает одетый по сезону человек в тени. Характеристика душности погоды. При расчете учитывается влияние влажности воздуха и скорости ветра на теплоощущения человека.
Tes - Эффективная температура на солнце - температура, которую ощущает человек, с поправкой на солнечный нагрев. Характеристика знойности погоды. Зависит от высоты солнца над горизонтом, облачности и скорости ветра. Ночью, в пасмурную погоду, а также при ветре 12 м/с и более поправка равна нулю.
P - Атмосферное давление - приведенное к уровню моря атмосферное давление.
Po - Атмосферное давление - измеренное на уровне метеостанции атмосферное давление.
Tmin - Минимальная температура - минимум температуры воздуха на высоте 2 м над землей.
Tmax - Максимальная температура - максимум температуры воздуха на высоте 2 м над землей.
R - Количество осадков - Количество выпавших осадков за период времени, мм. При наведении курсора мыши на число - период времени, за который выпало указанное количество осадков.
R24 - Количество осадков - Количество выпавших осадков за 24 часа, мм.
S - Снежный покров - Высота снежного покрова, см. При наведении курсора мыши на число - состояние снежного покрова и степень покрытия местности в баллах.